Showing default

HULIANWANG DIGUI-167, 68659

Orbit data source: Space-Track

HULIANWANG DIGUI-167, 68659 is a payload satellite owned by Zhongguo Xingwang (CN) in LEO that was launched on Wed, 08 Apr 2026 UTC via a CHANG ZHENG 6A launch vehicle from the Taiyaun Space Center, China (TSC). Payload-class satellites include a variety of spacecraft equipped with specific instruments for various scientific and technological missions. These include communications satellites like Starlink; space stations such as the ISS; scientific satellites like the Hubble; Earth observation satellites from companies like Planet Labs, Umbra, and HawkEye 360; GPS; miniature CubeSats for education and research; and military/defense satellites.

Loading next visibility...
Identifier
68659, 2026-076D
Orbit
LEO
Country
Flag of CNCN / PRC
Related business
Manufacturer
SECM
Mission
Operational spacecraft
Bus & Motor
XINGWANG S, Unknown motor
Mass
~800 kg wet, ~800 kg dry
Launch date (UTC)
2026-04-08 (1 month ago)
Launch vehicle
CHANG ZHENG 6A
Launch site
Taiyaun Space Center, China (TSC)
Object type
Payload
Rocket body
Debris
Shape & HBR
Unknown shape, 14.5 m
Radar Cross Section
RCS unknown

Expand to show TLE details & history
Last TLE update: 9 hours ago

TLE from 9 hours ago
0 HULIANWANG DIGUI-167
1 68659U 26076D   26140.60005447 -.00000013  00000-0 -51026-4 0  9998
2 68659  86.4985  53.2402 0002503  94.4398 265.7032 13.40455786  5710
Epoch: 2026-05-20T14:24Z
TLE epoch observation values (Epoch: 2026-05-20T14:24:04.706Z)
Latitude
0.00008°
Longitude
-41.03669°
Altitude
1,110.64 km
Speed
7.297 km/s
True Right ascension
03h 32m 57s
True Declination
0° 00' 00"
Sunlit
Object was in daylight at epoch
Visualization orbit readout
Latitude
Unknown
Longitude
Unknown
Altitude
Unknown
Speed
Unknown
Apparent Right ascension
Unknown
Apparent Declination
Unknown
Sunlit
N/A
Visualization observer readout
Local Sidereal Time
07:58:04
Azimuth
Unknown
Elevation
Unknown
Doppler factor
Unknown
Orbital elements
Apogee altitude
1,106.551 km
Perigee altitude
1,102.806 km
Semi-major axis
7,482.816 km
Eccentricity
0.00025
Inclination
86.4985°
RAAN
53.2402°
Arg. of periapsis
94.4398°
True anomaly
265.6746°
Mean anomaly
265.7032°
Eccentric anomaly
265.6889°
Mean motion
3.35309 °/min
Orbital period
107.36 mins
BSTAR
-0.000051026
Loading maneuver chart data...
Computing Atmospheric mass density...
Loading historical data...
Loading historical data...
Loading historical data...
Loading historical data...
Loading historical data...
Loading historical data...
Loading historical data...

Documentation

Showing up to 5 results
|